Flag for China Weather past 2 weeks in Guangzhou, Guangdong, China

Now
77 °F

Clear.


Feels Like: 78 °F
Forecast: 74 / 90 °F
Wind: 3 mph from Southeast

Location: Canton Airport

Current Time: Apr 29, 2015 at 3:01:26 AM

Latest Report: Apr 29, 2015 at 2:30 AM


Visibility: 5 mi

Pressure: 29.83 "Hg

Humidity: 89%

Dew point: 73 °F

Location of GuangzhouLocation

Historic Weather in Guangzhou — Graph

°F

Guangzhou temperature yesterday

Maximum temperature yesterday: 88 °F (at 2:30 PM)
Minimum temperature yesterday: 73 °F (at 5:30 AM)
Average temperature yesterday: 80 °F

Past Weeks' High & Low Weather Summary

 TemperatureHumidityPressure
High90 °F (Apr 19, 4:00 PM)100% (Apr 26, 4:30 AM)30.18 "Hg (Apr 26, 4:30 AM)
Low57 °F (Apr 14, 6:30 AM)16% (Apr 14, 2:00 PM)29.65 "Hg (Apr 19, 3:30 PM)
Average75 °F70%29.93 "Hg
* Reported Apr 14 1:00 AM — Apr 29 1:30 AM, Guangzhou, Weather by CustomWeather, © 2015

Note: Actual official high and low records may vary slightly from our data, if they occured in-between our weather recording intervals... More about our weather records

Advertising

Guangzhou weather history for previous 24 hours

 ConditionsComfort  
Time TempWeatherWind HumidityBarometerVisibility
1:30 AM
Wed, Apr 29
77 °FPassing clouds.1 mph89%29.83 "Hg5 mi
1:00 AM79 °FPassing clouds.3 mph84%29.83 "Hg6 mi
12:30 AM79 °FPassing clouds.1 mph84%29.83 "Hg6 mi
12:00 AM79 °FClear.1 mph84%29.83 "Hg6 mi
11:30 PM
Tue, Apr 28
79 °FClear.1 mph84%29.83 "Hg6 mi
11:00 PM79 °FPassing clouds.3 mph84%29.83 "Hg6 mi
10:30 PM79 °FPassing clouds.3 mph84%29.83 "Hg6 mi
10:00 PM81 °FPassing clouds.6 mph79%29.83 "Hg6 mi
9:30 PM81 °FPassing clouds.6 mph79%29.83 "Hg6 mi
9:00 PM81 °FPassing clouds.6 mph74%29.83 "Hg6 mi
8:30 PM82 °FPassing clouds.6 mph70%29.80 "Hg6 mi
8:00 PM82 °FPassing clouds.8 mph70%29.80 "Hg6 mi
7:30 PM82 °FPassing clouds.8 mph70%29.80 "Hg5 mi
7:00 PM84 °FPassing clouds.6 mph66%29.80 "Hg5 mi
6:30 PM84 °FScattered clouds.6 mph66%29.77 "Hg5 mi
6:00 PM86 °FScattered clouds.6 mph59%29.77 "Hg5 mi
5:30 PM88 °FScattered clouds.1 mph52%29.77 "Hg5 mi
5:00 PM88 °FScattered clouds.6 mph52%29.77 "Hg5 mi
4:30 PM86 °FScattered clouds.6 mph59%29.77 "Hg5 mi
4:00 PM88 °FScattered clouds.8 mph52%29.77 "Hg5 mi
3:30 PM88 °FScattered clouds.6 mph52%29.80 "Hg5 mi
3:00 PM88 °FScattered clouds.6 mph55%29.80 "Hg5 mi
2:30 PM88 °FScattered clouds.6 mph55%29.80 "Hg5 mi
2:00 PM86 °FScattered clouds.3 mph59%29.83 "Hg4 mi
1:30 PM86 °FScattered clouds.6 mph59%29.83 "Hg4 mi
1:00 PM86 °FScattered clouds.3 mph59%29.86 "Hg4 mi
12:30 PM86 °FScattered clouds.3 mph59%29.86 "Hg4 mi
11:30 AM84 °FPartly sunny.3 mph62%29.89 "Hg4 mi
11:00 AM82 °FPartly sunny.6 mph66%29.89 "Hg4 mi
10:30 AM82 °FPartly sunny.6 mph70%29.89 "Hg4 mi
10:00 AM81 °FPartly sunny.6 mph74%29.89 "Hg4 mi
9:30 AM81 °FBroken clouds.6 mph74%29.92 "Hg4 mi
9:00 AM79 °FFog.3 mph79%29.89 "Hg3 mi
8:30 AM77 °FFog.3 mph83%29.89 "Hg3 mi
8:00 AM77 °FFog.3 mph83%29.89 "Hg3 mi
7:30 AM75 °FFog.1 mph89%29.89 "Hg2 mi
7:00 AM75 °FFog.1 mph89%29.86 "Hg2 mi
6:30 AM73 °FFog.1 mph94%29.86 "Hg2 mi
6:00 AM73 °FFog.3 mph94%29.86 "Hg2 mi
5:30 AM73 °FFog.3 mph94%29.86 "Hg3 mi
5:00 AM75 °FFog.3 mph89%29.83 "Hg3 mi
4:30 AM75 °FFog.3 mph89%29.83 "Hg3 mi
4:00 AM75 °FClear.3 mph89%29.83 "Hg4 mi
3:30 AM75 °FClear.1 mph89%29.86 "Hg4 mi
3:00 AM75 °FClear.3 mph89%29.86 "Hg4 mi
Weather by CustomWeather, © 2015

See weather overviewHow to use our weather pages